Previsão horária em Plossy

Hoje, 3 Março, Quarta-feira

Tempo Temperatura Precipitação Vento Pressão Humidade
00:00 -2°C° 0 mm 4 m/s 754 mmHg 82%
01:00 -2°C° 0 mm 4 m/s 754 mmHg 83%
02:00 -2°C° 0 mm 4 m/s 755 mmHg 84%
03:00 -3°C° 0 mm 4 m/s 755 mmHg 86%
04:00 -3°C° 0 mm 4 m/s 755 mmHg 88%
05:00 -4°C° 0 mm 3 m/s 755 mmHg 89%
06:00 -2°C° 0 mm 3 m/s 755 mmHg 88%
07:00 -2°C° 0 mm 3 m/s 755 mmHg 88%
08:00 -2°C° 0 mm 3 m/s 755 mmHg 87%
09:00 -1°C° 0 mm 3 m/s 755 mmHg 82%
10:00 0°C° 0 mm 3 m/s 755 mmHg 76%
11:00 +1°C° 0 mm 4 m/s 755 mmHg 71%
12:00 +1°C° 0 mm 4 m/s 755 mmHg 66%
13:00 +3°C° 0 mm 4 m/s 754 mmHg 62%
14:00 +3°C° 0 mm 5 m/s 754 mmHg 57%
15:00 +3°C° 0 mm 4 m/s 753 mmHg 61%
16:00 +3°C° 0 mm 4 m/s 753 mmHg 65%
17:00 +2°C° 0 mm 3 m/s 752 mmHg 69%
18:00 +1°C° 0 mm 3 m/s 752 mmHg 73%
19:00 0°C° 0 mm 3 m/s 752 mmHg 76%
20:00 -1°C° 0 mm 3 m/s 752 mmHg 79%
21:00 -1°C° 0 mm 3 m/s 751 mmHg 79%
22:00 -2°C° 0 mm 4 m/s 750 mmHg 78%
23:00 -2°C° 0 mm 4 m/s 749 mmHg 78%

Amanhã, 4 Março, Quinta-feira

Tempo Temperatura Precipitação Vento Pressão Humidade
00:00 -2°C° 0 mm 4 m/s 749 mmHg 78%
01:00 -2°C° 0 mm 4 m/s 748 mmHg 79%
02:00 -2°C° 0 mm 4 m/s 748 mmHg 79%
03:00 -2°C° 0 mm 4 m/s 747 mmHg 83%
04:00 -2°C° 0 mm 4 m/s 745 mmHg 87%
05:00 -2°C° 0 mm 4 m/s 744 mmHg 91%
06:00 -2°C° 0 mm 4 m/s 744 mmHg 91%
07:00 -2°C° 0 mm 5 m/s 743 mmHg 90%
08:00 -1°C° 0 mm 5 m/s 743 mmHg 90%
09:00 0°C° 0 mm 5 m/s 742 mmHg 84%
10:00 +2°C° 0 mm 6 m/s 741 mmHg 79%
11:00 +3°C° 0 mm 6 m/s 741 mmHg 74%
12:00 +3°C° 0 mm 6 m/s 740 mmHg 76%
13:00 +3°C° 0 mm 6 m/s 740 mmHg 78%
14:00 +3°C° 0 mm 6 m/s 740 mmHg 80%
15:00 +2°C° 0 mm 5 m/s 739 mmHg 82%
16:00 +1°C° 0 mm 5 m/s 739 mmHg 85%
17:00 +1°C° 0 mm 5 m/s 739 mmHg 87%
18:00 0°C° 0 mm 5 m/s 739 mmHg 90%
19:00 0°C° 0 mm 4 m/s 740 mmHg 92%
20:00 -1°C° 0 mm 4 m/s 740 mmHg 94%
21:00 -1°C° 0.1 mm 4 m/s 740 mmHg 94%
22:00 -1°C° 0.1 mm 4 m/s 740 mmHg 95%
23:00 -1°C° 0.1 mm 3 m/s 740 mmHg 95%

Depois de amanhã, 5 Março, Sexta-feira

Tempo Temperatura Precipitação Vento Pressão Humidade
00:00 -2°C° 0.1 mm 4 m/s 741 mmHg 94%
01:00 -3°C° 0.1 mm 4 m/s 741 mmHg 92%
02:00 -3°C° 0.1 mm 4 m/s 741 mmHg 91%
03:00 -4°C° 0 mm 4 m/s 742 mmHg 88%
04:00 -4°C° 0 mm 3 m/s 742 mmHg 84%
05:00 -5°C° 0 mm 3 m/s 743 mmHg 81%
06:00 -5°C° 0 mm 3 m/s 743 mmHg 79%
07:00 -5°C° 0 mm 3 m/s 744 mmHg 77%
08:00 -5°C° 0 mm 3 m/s 744 mmHg 74%
09:00 -4°C° 0 mm 3 m/s 744 mmHg 67%
10:00 -2°C° 0 mm 3 m/s 745 mmHg 59%
11:00 -2°C° 0 mm 3 m/s 745 mmHg 51%
12:00 -1°C° 0 mm 3 m/s 745 mmHg 47%
13:00 0°C° 0 mm 3 m/s 745 mmHg 43%
14:00 0°C° 0 mm 3 m/s 745 mmHg 39%
15:00 +1°C° 0 mm 2 m/s 745 mmHg 42%
16:00 -1°C° 0 mm 2 m/s 746 mmHg 46%
17:00 +1°C° 0 mm 1 m/s 746 mmHg 50%
18:00 -2°C° 0 mm 2 m/s 746 mmHg 54%
19:00 -2°C° 0 mm 2 m/s 747 mmHg 58%
20:00 -4°C° 0 mm 3 m/s 747 mmHg 62%
21:00 -4°C° 0 mm 3 m/s 748 mmHg 65%
22:00 -5°C° 0 mm 4 m/s 748 mmHg 69%
23:00 -6°C° 0 mm 5 m/s 748 mmHg 73%

6 Março, Sábado

Tempo Temperatura Precipitação Vento Pressão Humidade
00:00 -7°C° 0 mm 5 m/s 749 mmHg 70%
01:00 -7°C° 0 mm 5 m/s 749 mmHg 66%
02:00 -7°C° 0 mm 4 m/s 750 mmHg 63%
03:00 -8°C° 0 mm 4 m/s 750 mmHg 60%
04:00 -8°C° 0 mm 4 m/s 750 mmHg 57%
05:00 -8°C° 0 mm 4 m/s 751 mmHg 55%
06:00 -8°C° 0 mm 4 m/s 751 mmHg 55%
07:00 -7°C° 0 mm 4 m/s 751 mmHg 54%
08:00 -7°C° 0 mm 4 m/s 752 mmHg 54%
09:00 -6°C° 0 mm 5 m/s 752 mmHg 51%
10:00 -6°C° 0 mm 5 m/s 752 mmHg 48%
11:00 -5°C° 0 mm 5 m/s 753 mmHg 44%
12:00 -5°C° 0 mm 5 m/s 753 mmHg 43%
13:00 -4°C° 0 mm 5 m/s 753 mmHg 41%
14:00 -4°C° 0 mm 5 m/s 753 mmHg 39%
15:00 -3°C° 0 mm 4 m/s 752 mmHg 41%
16:00 -3°C° 0 mm 4 m/s 752 mmHg 42%
17:00 -4°C° 0 mm 4 m/s 752 mmHg 44%
18:00 -4°C° 0 mm 4 m/s 752 mmHg 46%
19:00 -5°C° 0 mm 4 m/s 752 mmHg 48%
20:00 -5°C° 0 mm 4 m/s 752 mmHg 50%
21:00 -6°C° 0 mm 5 m/s 751 mmHg 51%
22:00 -6°C° 0 mm 5 m/s 751 mmHg 51%
23:00 -6°C° 0 mm 6 m/s 750 mmHg 52%

7 Março, Domingo

Tempo Temperatura Precipitação Vento Pressão Humidade
00:00 -6°C° 0 mm 6 m/s 749 mmHg 54%
01:00 -6°C° 0 mm 7 m/s 749 mmHg 55%
02:00 -6°C° 0 mm 7 m/s 748 mmHg 57%
03:00 -6°C° 0 mm 8 m/s 747 mmHg 58%
04:00 -6°C° 0 mm 8 m/s 746 mmHg 59%
05:00 -6°C° 0 mm 8 m/s 745 mmHg 60%
06:00 -6°C° 0 mm 9 m/s 744 mmHg 64%
07:00 -5°C° 0 mm 9 m/s 743 mmHg 67%
08:00 -5°C° 0 mm 9 m/s 743 mmHg 70%
09:00 -4°C° 0 mm 10 m/s 742 mmHg 68%
10:00 -4°C° 0 mm 10 m/s 742 mmHg 65%
11:00 -3°C° 0 mm 10 m/s 742 mmHg 63%
12:00 -3°C° 0 mm 10 m/s 741 mmHg 66%
13:00 -2°C° 0 mm 10 m/s 741 mmHg 69%
14:00 -2°C° 0 mm 10 m/s 740 mmHg 72%
15:00 -1°C° 0 mm 9 m/s 740 mmHg 72%
16:00 -1°C° 0 mm 9 m/s 740 mmHg 72%
17:00 -3°C° 0 mm 9 m/s 739 mmHg 72%
18:00 -2°C° 0.3 mm 8 m/s 739 mmHg 78%
19:00 -3°C° 0.3 mm 7 m/s 739 mmHg 83%
20:00 -3°C° 0.3 mm 6 m/s 739 mmHg 89%
21:00 -4°C° 0.2 mm 6 m/s 740 mmHg 83%
22:00 -4°C° 0.2 mm 6 m/s 740 mmHg 78%
23:00 -5°C° 0.2 mm 5 m/s 740 mmHg 72%

8 Março, Segunda-feira

Tempo Temperatura Precipitação Vento Pressão Humidade
00:00 -6°C° 0 mm 5 m/s 740 mmHg 70%
01:00 -5°C° 0 mm 4 m/s 741 mmHg 68%
02:00 -7°C° 0 mm 4 m/s 741 mmHg 66%
03:00 -8°C° 0 mm 4 m/s 741 mmHg 67%
04:00 -8°C° 0 mm 4 m/s 741 mmHg 69%
05:00 -8°C° 0 mm 4 m/s 741 mmHg 70%
06:00 -8°C° 0 mm 5 m/s 742 mmHg 72%
07:00 -8°C° 0 mm 5 m/s 742 mmHg 73%
08:00 -8°C° 0 mm 5 m/s 743 mmHg 74%
09:00 -7°C° 0 mm 5 m/s 743 mmHg 69%
10:00 -7°C° 0 mm 5 m/s 744 mmHg 64%
11:00 -7°C° 0 mm 5 m/s 744 mmHg 59%
12:00 -8°C° 0 mm 6 m/s 745 mmHg 58%
13:00 -8°C° 0 mm 6 m/s 745 mmHg 57%
14:00 -8°C° 0 mm 6 m/s 745 mmHg 57%
15:00 -8°C° 0 mm 6 m/s 746 mmHg 57%
16:00 -9°C° 0 mm 6 m/s 747 mmHg 58%
17:00 -9°C° 0 mm 6 m/s 747 mmHg 58%
18:00 -10°C° 0 mm 6 m/s 748 mmHg 58%
19:00 -10°C° 0 mm 5 m/s 749 mmHg 57%
20:00 -11°C° 0 mm 5 m/s 750 mmHg 56%
21:00 -10°C° 0 mm 4 m/s 750 mmHg 58%
22:00 -10°C° 0 mm 4 m/s 751 mmHg 60%
23:00 -11°C° 0 mm 4 m/s 752 mmHg 62%
Mostrar mais

Necessitamos do seu Consentimento

A Meteoprog e os seus Fornecedores de Serviços podem armazenar e aceder a dados pessoais como cookies, identificadores do dispositivo ou outras tecnologias semelhantes existentes no seu dispositivo e processar estes dados para personalizar conteúdos e anúncios, assim como funcionalidades nas redes sociais e análise de tráfego.

  • Armazenar e/ou aceder a informações no seu dispositivo

    Os cookies, identificadores do dispositivo ou outras informações podem ser armazenados ou acedidos no seu dispositivo, para os fins acima indicados.

  • Anúncios e conteúdos personalizados, medição de anúncios e conteúdos, dados sobre o público-alvo e desenvolvimento de produtos

    Os anúncios e os conteúdos podem ser personalizados com base num perfil. Podem ser adicionados dados adicionais para uma maior personalização dos anúncios e dos conteúdos. A eficácia dos anúncios e dos conteúdos pode ser medida. Podem ser obtidas informações sobre o público que visualizou os anúncios e os conteúdos. Estes dados podem ser usados para desenvolver ou melhorar sistemas, softwares ou a experiência do utilizador.

Ao clicar em "Eu concordo”, permitirá o uso de cookies, identificadores do dispositivo e web beacons mencionados ou outras tecnologias semelhantes. As configurações do navegador do seu dispositivo podem ser alteradas.

Para certos fins, podem ser invocados interesses legítimos ao invés de consentimento. Pode ler mais informação sobre este assunto na nossa Política de Privacidade e Cookies.